Weather Service Report


340 
ASUS44 KFWD 290815
RWRTX 
NORTH TEXAS HOURLY WEATHER ROUNDUP
NATIONAL WEATHER SERVICE FORT WORTH TX
300 AM CDT SUN MAY 29 2016

NOTE: "FAIR" INDICATES FEW OR NO CLOUDS BELOW 12,000 FEET WITH NO
SIGNIFICANT WEATHER AND/OR OBSTRUCTIONS TO VISIBILITY.

TXZ118-119-290900-
DALLAS/FORT WORTH METROPLEX
  
CITY           SKY/WX    TMP DP  RH WIND       PRES   REMARKS
DFW AIRPORT    CLOUDY    78  72  81 SE5       30.02S                  
DALLAS LOVE    CLOUDY    78  72  81 E8        30.02F                  
FTW MEACHAM    CLOUDY    78  72  81 SE5       30.03S                  
DAL-EXECUTIVE  CLOUDY    75  72  90 SE3       30.02F                  
FTW-ALLIANCE   CLOUDY    76  72  87 SE3       30.05R                  
FTW-NAS-JRB    CLOUDY    78  72  81 E3        30.03S                  
FTW-SPINKS     CLOUDY    75  72  90 CALM      30.03S FOG              
ARLINGTON      CLOUDY    80  72  76 E3        30.02F                  
GRAND PRAIRIE  CLOUDY    76  71  83 E5        30.03F                  
ADDISON        CLOUDY    78  74  85 SE8       30.05S                  
MESQUITE       MOCLDY    74  73  97 CALM      30.02F                  
LANCASTER      CLOUDY    74  71  89 E5        30.03F                  
$$

TXZ091>094-102>105-117-120-121-131>134-290900-
NORTH CENTRAL TEXAS
  
CITY           SKY/WX    TMP DP  RH WIND       PRES   REMARKS
SHRMAN/DENISON CLOUDY    74  67  78 S13G18    30.02S                  
GAINESVILLE    CLOUDY    74  70  87 S10       30.07R                  
BOWIE          RAIN      76  62  61 SW15G33   30.08R                  
DECATUR        CLOUDY    76  73  89 S8        30.08R                  
DENTON         CLOUDY    76  73  91 NE5       30.06R                  
MCKINNEY       CLOUDY    74  73  97 S3        30.03F                  
GREENVILLE     MOCLDY    73  70  88 SE7       30.03F                  
ROCKWALL       CLOUDY    74  73  97 E6        30.03F                  
TERRELL        MOCLDY    75  72  90 E3        30.03F                  
WAXAHACHIE     CLOUDY    75  73  93 SE6       30.03F                  
CLEBURNE       CLOUDY    77  75  94 S5G12     30.03R                  
GRANBURY         N/A     77  73  86 N3        30.03R                  
$$

TXZ083>090-098>101-113>116-127>130-139>142-154-155-290900-
WESTERN NORTH TEXAS
  
CITY           SKY/WX    TMP DP  RH WIND       PRES   REMARKS
WICHITA FALLS  CLOUDY    70  61  73 SW16G23   30.01S                  
WF-KICKAPOO    CLOUDY    70  57  62 S26G37    29.98F                  
VERNON         CLOUDY    71  60  67 S12       30.03R                  
ABILENE        TSTM      64  62  93 E21G30    30.08F                  
ABILENE-DYESS  LGT RAIN  64  59  82 N12       30.11R                  
BRECKENRIDGE   TSTM      66  64  94 W20G32    30.16R                  
GRAHAM         RAIN      66  62  87 NW15G22   30.11R                  
MINERAL WELLS  LGT RAIN  76  73  91 CALM      30.06R                  
STEPHENVILLE   CLOUDY    75  70  85 SE3       30.05R                  
COMANCHE       PTCLDY    74  74 100 E5        30.04R                  
BROWNWOOD      LGT RAIN  75  70  83 NW15      30.05R                  
COLEMAN        DRIZZLE   70  63  79 N16       30.08R                  
$$

TXZ143>147-156>162-174-175-290900-
CENTRAL TEXAS
  
CITY           SKY/WX    TMP DP  RH WIND       PRES   REMARKS
WACO           CLOUDY    76  70  82 S10       30.02R HAZE             
WACO-MCGREGOR  CLOUDY   N/A N/A N/A S8          N/A                   
HILLSBORO      CLOUDY    74  71  89 SE6       30.03R                  
CORSICANA      MOCLDY    77  71  82 S7        30.05R                  
MEXIA          MOCLDY    73  73  98 SE7       30.04R                  
HEARNE         CLOUDY    74  72  92 SE6       30.05R                  
CAMERON        LGT RAIN  76  72  87 S10       30.03R                  
TEMPLE         CLOUDY    76  72  87 S9        30.03R                  
KILLEEN        CLOUDY    74  71  92 SE7       30.00F                  
KILLEEN-SKYLRK CLOUDY    76  72  87 SE9       30.01F                  
FORT HOOD      CLOUDY    74  73  96 SE8       29.99F                  
GATESVILLE     CLOUDY    75  73  94 SE6       30.03F                  
HAMILTON       CLOUDY    74  74 100 SE9       30.03S                  
LAMPASAS       CLOUDY    76  72  87 SE5       30.01S                  
$$

TXZ095>097-106>112-122>126-135>138-148>153-164>167-290900-
EAST TEXAS
  
CITY           SKY/WX    TMP DP  RH WIND       PRES   REMARKS
PARIS          CLOUDY    70  63  78 E7        30.03F                  
SULPHUR SPRNGS CLOUDY    72  71  96 SE5       30.06F FOG              
MOUNT PLEASANT CLOUDY    70  70 100 CALM      30.06S                  
GILMER         CLOUDY    70  70 100 CALM      30.05R                  
MINEOLA        CLOUDY    72  70  94 CALM      30.05S FOG              
TYLER          CLOUDY    74  70  87 S6        30.04S                  
LONGVIEW       CLOUDY    73  71  93 S8        30.04R                  
MARSHALL       CLOUDY    70  68  93 CALM      30.06S                  
ATHENS         CLOUDY    72  72 100 CALM      30.03R                  
PALESTINE      CLOUDY    73  72  95 E3        30.05S                  
JACKSONVILLE   PTCLDY    72  70  95 S5        30.08R                  
HENDERSON      CLOUDY    72  70  92 CALM      30.06S                  
CENTER         FAIR      70  69  95 CALM      30.05R FOG              
NACOGDOCHES    CLEAR     70  66  88 CALM      30.05R                  
LUFKIN         CLEAR     69  67  93 CALM      30.04S                  
$$

SUPPLEMENTAL OBSERVATIONS (CENTRAL)
  
CITY           SKY/WX    TMP DP  RH WIND       PRES   REMARKS
LAKE TEXOMA      N/A     73  68  83 E5          N/A                   
PAT MAYSE LAKE   N/A     70  68  94 NE1         N/A                   
CEDAR HILL       N/A     75  72  88 E1          N/A                   
ATHENS           N/A     73  70  88 S3          N/A                   
TEMPLE           N/A     75  70  83 S8          N/A                   
$$

SUPPLEMENTAL OBSERVATIONS (WEST)
  
CITY           SKY/WX    TMP DP  RH WIND       PRES   REMARKS
MILLERS CREEK    N/A     66  61  82 SE25G32     N/A                   
GRANBURY         N/A     75  72  88 NE5         N/A                   
HAMBY            N/A     63  57  82 E14         N/A                   
IVIE RESERVOIR   N/A    N/A N/A N/A E3G18       N/A                   
COLORADO BEND    N/A     77  57  50 W8G22       N/A                   
$$

SUPPLEMENTAL OBSERVATIONS (EAST)
  
CITY           SKY/WX    TMP DP  RH WIND       PRES   REMARKS
CLARKSVILLE      N/A     72  70  94 E2          N/A                   
TEXARKANA        N/A     64  63  94 CALM        N/A                   
LINDEN           N/A     70  68  94 CALM        N/A                   
CADDO LAKE       N/A     66  63  88 CALM        N/A                   
GILMER           N/A     70  68  94 CALM        N/A                   
HENDERSON        N/A     73  68  83 S5          N/A                   
LUFKIN           N/A     70  68  94 MISG        N/A                   
N SABINE NF      N/A     70  68  94 MISG        N/A                   
S SABINE NF      N/A     66  64  94 CALM        N/A                   
$$

SUPPLEMENTAL OBSERVATIONS ARE A COLLECTION OF AUTOMATED INSTRUMENTS
THAT ARE MAINTAINED BY A VARIETY OF FEDERAL AND STATE AGENCIES. 
CERTAIN ELEMENTS...SUCH AS HUMIDITY VALUES AND SUSTAINED WIND 
SPEEDS...MAY BE APPROXIMATED.

  

Return to Home page


Western Regional Climate Center, wrcc@dri.edu